TimeEDT,TemperatureF,Dew PointF,Humidity,Sea Level PressureIn,VisibilityMPH,Wind Direction,Wind SpeedMPH,Gust SpeedMPH,PrecipitationIn,Events,Conditions,WindDirDegrees,DateUTC
12:53 AM,37.9,33.1,83,29.67,10.0,WNW,3.5,-,N/A,,Scattered Clouds,290,2014-03-12 04:53:00
1:53 AM,39.9,34.0,79,29.65,10.0,Calm,Calm,-,N/A,,Mostly Cloudy,0,2014-03-12 05:53:00
2:53 AM,37.9,33.1,83,29.64,10.0,NW,3.5,-,N/A,,Mostly Cloudy,320,2014-03-12 06:53:00
3:53 AM,37.0,32.0,82,29.61,10.0,Calm,Calm,-,N/A,,Mostly Cloudy,0,2014-03-12 07:53:00
4:53 AM,36.0,32.0,86,29.57,10.0,Calm,Calm,-,N/A,,Clear,0,2014-03-12 08:53:00
5:53 AM,35.1,30.9,85,29.57,10.0,Calm,Calm,-,N/A,,Clear,0,2014-03-12 09:53:00
6:53 AM,35.1,32.0,89,29.54,10.0,Calm,Calm,-,N/A,,Clear,0,2014-03-12 10:53:00
7:53 AM,36.0,33.1,89,29.52,10.0,NNW,3.5,-,N/A,,Clear,330,2014-03-12 11:53:00
8:53 AM,46.9,36.0,66,29.48,10.0,NNE,4.6,-,N/A,,Clear,20,2014-03-12 12:53:00
9:53 AM,48.9,36.0,61,29.44,10.0,NE,8.1,-,N/A,,Clear,40,2014-03-12 13:53:00
10:53 AM,52.0,37.9,59,29.39,10.0,Variable,3.5,-,N/A,,Partly Cloudy,0,2014-03-12 14:53:00
11:53 AM,55.0,41.0,59,29.32,10.0,ENE,3.5,-,N/A,,Mostly Cloudy,60,2014-03-12 15:53:00
12:53 PM,57.9,45.0,62,29.25,10.0,Calm,Calm,-,N/A,,Overcast,0,2014-03-12 16:53:00
1:53 PM,57.0,42.1,57,29.19,10.0,NNW,6.9,-,N/A,,Overcast,330,2014-03-12 17:53:00
2:53 PM,54.0,42.1,64,29.15,10.0,NNW,3.5,-,N/A,,Overcast,330,2014-03-12 18:53:00
3:53 PM,55.0,43.0,64,29.11,9.0,NW,4.6,-,0.00,Rain,Light Rain,320,2014-03-12 19:53:00
4:53 PM,51.1,48.9,92,29.07,2.5,Calm,Calm,-,0.02,Rain,Light Rain,0,2014-03-12 20:53:00
5:06 PM,48.9,46.9,93,29.05,1.8,Calm,Calm,-,0.00,Rain,Light Rain,0,2014-03-12 21:06:00
5:39 PM,48.0,46.9,96,29.03,1.5,Calm,Calm,-,0.02,Rain,Light Rain,0,2014-03-12 21:39:00
5:53 PM,48.9,46.9,93,29.03,1.2,Calm,Calm,-,0.02,,Overcast,0,2014-03-12 21:53:00
6:03 PM,46.9,46.0,97,29.02,0.5,Calm,Calm,-,N/A,Fog,Fog,0,2014-03-12 22:03:00
6:12 PM,50.0,48.9,96,29.02,2.0,Calm,Calm,-,0.00,Rain,Light Rain,0,2014-03-12 22:12:00
6:21 PM,52.0,50.0,93,29.01,5.0,South,4.6,-,0.00,Rain,Light Rain,180,2014-03-12 22:21:00
6:53 PM,57.0,53.1,87,29.01,10.0,SSW,5.8,-,0.00,,Overcast,210,2014-03-12 22:53:00
7:35 PM,50.0,48.0,93,29.04,5.0,Calm,Calm,-,0.05,Rain,Light Rain,0,2014-03-12 23:35:00
7:53 PM,48.0,46.9,96,29.03,3.0,Calm,Calm,-,0.06,Rain,Light Rain,0,2014-03-12 23:53:00
7:58 PM,48.9,48.0,97,29.02,1.8,Calm,Calm,-,0.01,Rain,Light Rain,0,2014-03-12 23:58:00
8:15 PM,48.0,46.9,96,29.02,0.5,Calm,Calm,-,0.02,Fog-Rain,Light Rain,0,2014-03-13 00:15:00
8:22 PM,46.0,46.0,100,29.02,0.2,Calm,Calm,-,0.02,Fog-Rain,Light Rain,0,2014-03-13 00:22:00
8:51 PM,46.4,44.6,93,29.01,0.5,SE,3.5,-,0.04,Fog-Rain,Light Rain,140,2014-03-13 00:51:00
8:53 PM,46.0,45.0,96,29.02,0.5,SE,3.5,-,0.04,Fog-Rain,Light Rain,140,2014-03-13 00:53:00
9:00 PM,45.0,44.1,97,29.02,0.2,South,5.8,-,0.00,Fog-Rain,Light Rain,170,2014-03-13 01:00:00
9:08 PM,46.0,45.0,96,29.03,1.0,South,3.5,-,0.01,Rain,Light Rain,180,2014-03-13 01:08:00
9:16 PM,48.0,46.9,96,29.03,3.0,Calm,Calm,-,0.01,,Overcast,0,2014-03-13 01:16:00
9:39 PM,46.9,46.0,97,29.05,2.5,WNW,8.1,-,0.01,Rain,Light Rain,290,2014-03-13 01:39:00
9:42 PM,46.9,46.0,97,29.06,2.5,WNW,5.8,-,0.01,Rain,Light Rain,290,2014-03-13 01:42:00
9:45 PM,46.9,46.0,97,29.06,3.0,NW,6.9,-,0.01,,Overcast,310,2014-03-13 01:45:00
9:53 PM,46.9,44.1,90,29.08,9.0,NW,16.1,25.3,0.01,,Overcast,320,2014-03-13 01:53:00
10:16 PM,39.0,35.1,86,29.11,10.0,NNW,23.0,33.4,0.00,Rain,Light Rain,330,2014-03-13 02:16:00
10:53 PM,34.0,27.0,75,29.17,10.0,NW,17.3,29.9,0.00,,Overcast,310,2014-03-13 02:53:00
11:01 PM,34.0,27.0,75,29.17,10.0,NW,9.2,23.0,N/A,,Overcast,310,2014-03-13 03:01:00
11:40 PM,32.0,23.0,69,29.22,10.0,WNW,15.0,25.3,N/A,,Overcast,300,2014-03-13 03:40:00
11:53 PM,30.9,19.9,64,29.25,10.0,NW,12.7,33.4,N/A,,Overcast,310,2014-03-13 03:53:00